Location: Chiroubles
(46.1812°N, 4.6660°E)
Time: 03:04:10
(UTC+00:00)

Cosmos 1242 Rocket - Pass Details

Date: 15 August 2020
Orbit: 448 x 486 km, 81.2° (Epoch: 27 September)

Event Time Altitude Azimuth Distance (km) Brightness Sun altitude
Rises 21:45:06 0° 351° (N) 2,550 7.3 -24.3°
Reaches altitude 10° 21:47:13 10° 354° (N) 1,671 6.1 -24.5°
Enters shadow 21:49:47 42° 11° (N) 707 3.6 -24.7°
